Hurricane Symbol View the latest observations near Atlantic Tropical Storm Alberto.

Station 42036 (LLNR 855) - WEST TAMPA - 112 NM WNW of Tampa, FL Image indicating link to RSS feed of recent meteorological observations for station 42036


Conditions at 42036 as of
(4:00 pm CDT)
2100 GMT on 06/19/2024:
     

Click on the graph icon in the table below to see a time series plot of the last five days of that observation.

5-day plot - Wind Direction Wind Direction (WDIR): E ( 80 deg true )
5-day plot - Wind Speed Wind Speed (WSPD): 21.4 kts
5-day plot - Wind Gust Wind Gust (GST): 27.2 kts
5-day plot - Atmospheric Pressure Atmospheric Pressure (PRES):30.01 in
5-day plot - Pressure Tendency Pressure Tendency (PTDY):-0.03 in ( Falling )
5-day plot - Air Temperature Air Temperature (ATMP): 82.2 °F
5-day plot - Dew Point Dew Point (DEWP): 78.1 °F
5-day plot - Heat Index Heat Index (HEAT): 91.4 °F
5-day plot - Wind Speed at 10 Meters Wind Speed at 10 meters (WSPD10M): 23.3 kts
5-day plot - Wind Speed at 20 Meters Wind Speed at 20 meters (WSPD20M): 23.3 kts
5-day plot -  Wind Speed, Wind Gust and Atmospheric Pressure Combined plot of Wind Speed, Gust, and Air Pressure
Supplemental Measurements
Highest 1-minute Wind Speed
Time (CDT)5-day plot - 1-Minute Wind Speed WSPD 5-day plot - 1-Minute Wind Direction WDIR
3:57 pm 23.3 kts-
Previous observations
TIME
(CDT)
5-day plot - Wind Direction
WDIR
 
5-day plot - Wind Speed
WSPD
kts
5-day plot - Wind Gust
GST
kts
5-day plot - Wave Height
WVHT
ft
5-day plot - Dominant Wave Period
DPD
sec
5-day plot - Average Wave Period
APD
sec
5-day plot - Mean Wave Direction
MWD
 
5-day plot - Atmospheric Pressure
PRES
in
5-day plot - Pressure Tendency
PTDY
in
5-day plot - Air Temperature
ATMP
°F
5-day plot - Water Temperature
WTMP
°F
5-day plot - Dew Point
DEWP
°F
5-day plot - Salinity
SAL
psu
5-day plot - Visibility
VIS
nmi
5-day plot - Tide (above MLLW)
TIDE
ft
2024-06-19 03:50 pm E 21.4 27.2 8.5 65.4ESE30.01- 82.0- 78.1---
2024-06-19 03:40 pm E 21.4 25.3 8.5-5.4ESE30.01- 81.7- 77.7---
2024-06-19 03:30 pm E 21.4 25.3----30.01- 81.7- 77.9---
2024-06-19 03:20 pm E 23.3 27.2 7.5 65.3 E30.01- 81.5- 77.9---
2024-06-19 03:10 pm E 23.3 27.2 7.5-5.3 E30.02- 81.5- 77.7---
2024-06-19 03:00 pm E 23.3 27.2----30.02-0.03 81.5- 77.5---
2024-06-19 02:50 pm E 21.4 27.2 7.2 65.2 E30.02- 81.3- 77.7---
2024-06-19 02:40 pm E 23.3 27.2 7.2-5.2 E30.02- 81.5- 77.9---
2024-06-19 02:30 pm E 23.3 27.2----30.02- 82.2- 78.3---
2024-06-19 02:20 pm E 21.4 25.3 7.5 65.2 E30.03- 82.6- 77.9---
2024-06-19 02:10 pm E 21.4 25.3 7.5-5.2 E30.03- 82.4- 78.1---
2024-06-19 02:00 pm E 21.4 25.3----30.03-0.01 82.6- 78.4---
2024-06-19 01:50 pm E 21.4 27.2 7.2 65.2ESE30.03- 82.8- 77.7---
2024-06-19 01:40 pm E 23.3 27.2 7.2-5.2ESE30.03- 82.6- 77.5---
2024-06-19 01:30 pm E 21.4 25.3----30.04- 82.8- 77.7---
2024-06-19 01:20 pm E 19.4 25.3 7.2 65.2ESE30.05- 82.6- 77.9---
2024-06-19 01:10 pm E 19.4 25.3----30.05- 82.6- 77.9---
2024-06-19 01:00 pm E 19.4 23.3----30.04+0.02 82.6- 77.9---
2024-06-19 12:50 pm E 19.4 23.3 6.9 65.1ESE30.04-------
2024-06-19 12:40 pm E 19.4 23.3----30.04- 82.4- 77.7---
2024-06-19 12:30 pm E 19.4 23.3----30.04- 82.2- 77.5---
2024-06-19 12:20 pm E 19.4 23.3 6.9 65.1 E30.05- 82.0- 77.5---
2024-06-19 12:10 pm E 19.4 23.3 6.9-5.1 E30.04- 82.0- 77.5---
2024-06-19 12:00 pm E 19.4 23.3----30.04+0.04 82.0- 77.5---
2024-06-19 11:50 am E 19.4 23.3 6.9 75.2ESE30.05- 82.0- 77.7---
2024-06-19 11:40 am E 19.4 25.3 6.9-5.2ESE30.05- 82.0- 77.5---
2024-06-19 11:30 am E 21.4 25.3----30.04- 82.0- 77.5---
2024-06-19 11:20 am--- 7.5 65.4 E30.04-------
2024-06-19 11:10 am E 21.4 25.3 7.5-5.4 E30.04- 82.2- 77.5---
2024-06-19 11:00 am E 21.4 25.3----30.03+0.04 82.0- 77.7---
2024-06-19 10:50 am E 21.4 25.3 6.6 65.1ESE30.03- 81.9- 77.4---
2024-06-19 10:40 am E 19.4 25.3----30.03- 81.9- 77.5---
2024-06-19 10:30 am E 19.4 23.3----30.03- 81.9- 77.5---
2024-06-19 10:20 am E 19.4 25.3 7.5 75.4 E30.02- 81.9- 77.5---
2024-06-19 10:10 am E 19.4 25.3 7.5-5.4 E30.02- 81.9- 77.4---
2024-06-19 10:00 am E 19.4 25.3----30.02+0.03 81.9- 77.4---
2024-06-19 09:50 am E 19.4 25.3 7.2 65.3 E30.02- 81.7- 77.4---
2024-06-19 09:40 am E 19.4 23.3 7.2-5.3 E30.02- 81.9- 77.4---
2024-06-19 09:30 am E 19.4 25.3----30.01- 81.9- 77.4---
2024-06-19 09:20 am E 21.4 25.3 7.2 65.3ESE30.01- 81.9- 77.2---
2024-06-19 09:10 am E 21.4 25.3 7.2-5.3ESE30.01- 81.9- 77.2---
2024-06-19 09:00 am E 21.4 25.3----30.01+0.04 81.9- 77.4---
2024-06-19 08:50 am E 21.4 25.3 6.9 65.2ESE30.01- 82.0- 77.5---
2024-06-19 08:40 am E 21.4 27.2 6.9-5.2ESE30.01- 82.0- 77.4---
2024-06-19 08:30 am E 21.4 25.3----30.01- 82.0- 77.4---
2024-06-19 08:20 am E 21.4 25.3 6.2 65.1 E30.01- 82.2- 77.5---
2024-06-19 08:10 am E 21.4 25.3 6.2-5.1 E30.00- 82.4- 77.4---
2024-06-19 08:00 am E 21.4 25.3----30.01+0.05 82.2- 77.5---
2024-06-19 07:50 am E 21.4 25.3 6.6 65.1 E30.00- 82.4- 77.2---
2024-06-19 07:40 am E 19.4 25.3 6.6-5.1 E30.00- 82.4- 77.4---
2024-06-19 07:30 am E 21.4 25.3----30.00- 82.4- 76.6---
2024-06-19 07:20 am E 19.4 23.3 6.9 65.2ESE29.99- 82.4- 77.0---
2024-06-19 07:10 am E 19.4 23.3 6.9-5.2ESE29.99- 82.4- 77.0---
2024-06-19 07:00 am E 19.4 25.3----29.99+0.04 82.4- 77.0---
2024-06-19 06:50 am E 21.4 25.3 6.6 65.2ESE29.98- 82.4- 77.0---
2024-06-19 06:40 am E 21.4 25.3----29.98- 82.4- 77.2---
2024-06-19 06:30 am E 21.4 27.2----29.98- 82.2- 77.2---
2024-06-19 06:20 am E 19.4 25.3 6.9 75.3 E29.98- 82.2- 77.2---
2024-06-19 06:10 am E 19.4 23.3 6.9-5.3 E29.98- 82.2- 77.2---
2024-06-19 06:00 am E 19.4 25.3----29.97+0.03 82.2- 77.0---
2024-06-19 05:50 am E 19.4 23.3 6.6 75.2 E29.97- 82.2- 77.4---
2024-06-19 05:40 amESE 19.4 23.3----29.96- 82.4- 76.8---
2024-06-19 05:30 am E 21.4 25.3----29.96- 82.4- 76.3---
2024-06-19 05:20 am E 19.4 23.3 7.2 75.4 E29.96- 82.2- 76.6---
2024-06-19 05:10 amESE 19.4 23.3 7.2-5.4 E29.96- 82.2- 76.8---
2024-06-19 05:00 amESE 17.5 23.3----29.96+0.01 82.2- 77.0---
2024-06-19 04:50 amESE 19.4 23.3 7.2 75.5ESE29.95- 82.2- 76.8---
2024-06-19 04:40 amESE 19.4 23.3----29.95- 82.2- 76.8---
2024-06-19 04:30 amESE 19.4 23.3----29.95- 82.0- 76.8---
2024-06-19 04:20 amESE 19.4 23.3 6.9 75.3 E29.94- 82.0- 76.6---
2024-06-19 04:10 amESE 19.4 23.3 6.9-5.3 E29.95- 82.0- 77.2---
2024-06-19 04:00 amESE 19.4 23.3----29.95+0.00 81.9- 76.8---
2024-06-19 03:50 am E 19.4 25.3 7.2 75.3ESE29.94- 81.9- 77.4---
2024-06-19 03:40 am E 21.4 25.3 7.2-5.3ESE29.94- 81.9- 76.8---
2024-06-19 03:30 am E 21.4 25.3----29.94- 81.9- 76.8---
2024-06-19 03:20 am E 21.4 25.3 8.2 75.5ESE29.94- 81.9- 76.8---
2024-06-19 03:10 am E 21.4 27.2 8.2-5.5ESE29.94- 82.0- 77.2---
2024-06-19 03:00 am E 21.4 27.2----29.94-0.03 82.0- 77.5---
2024-06-19 02:50 am E 21.4 27.2 8.2 75.6 E29.94- 82.0- 77.7---
2024-06-19 02:40 am E 23.3 29.1----29.94- 82.0- 77.9---
2024-06-19 02:30 am E 23.3 29.1----29.94- 82.0- 77.5---
2024-06-19 02:20 am E 23.3 27.2 8.5 75.6ESE29.94- 82.0- 77.4---
2024-06-19 02:10 am E 23.3 29.1 8.5-5.6ESE29.94- 82.0- 77.4---
2024-06-19 02:00 am E 23.3 27.2----29.94-0.02 82.0- 77.4---
2024-06-19 01:50 am E 23.3 27.2 8.9 75.6ESE29.95- 82.2- 77.5---
2024-06-19 01:40 am E 23.3 29.1 8.9-5.6ESE29.95- 82.2- 77.5---
2024-06-19 01:30 am E 23.3 27.2----29.95- 82.0- 77.4---
2024-06-19 01:20 am E 23.3 27.2 8.9-5.6 E29.95-------
2024-06-19 01:10 am E 23.3 29.1 8.9-5.6 E29.95- 82.0- 77.2---
2024-06-19 01:00 am E 23.3 29.1----29.95-0.01 82.0- 77.0---
2024-06-19 12:50 am E 23.3 27.2 9.2 75.6ESE29.95- 82.2- 77.2---
2024-06-19 12:40 am E 23.3 29.1----29.96- 82.4- 76.8---
2024-06-19 12:30 am E 23.3 29.1----29.96- 82.4- 76.8---
2024-06-19 12:20 am E 23.3 29.1 8.2 75.5ESE29.96- 82.4- 76.8---
2024-06-19 12:10 am E 23.3 29.1 8.2-5.5ESE29.96- 82.4- 76.5---
2024-06-19 12:00 am E 25.3 31.1----29.96+0.01 82.6- 76.3---
2024-06-18 11:50 pm E 25.3 31.1 9.2 75.6ESE29.96- 82.8- 76.5---
2024-06-18 11:40 pm E 25.3 29.1 9.2-5.6ESE29.97- 82.9- 76.6---
2024-06-18 11:30 pm E 25.3 29.1----29.97- 82.9- 76.1---
2024-06-18 11:20 pm E 23.3 31.1 7.9 75.4ESE29.97- 83.1- 75.9---
2024-06-18 11:10 pm E 23.3 31.1 7.9-5.4ESE29.97- 83.5- 76.1---
2024-06-18 11:00 pm E 23.3 29.1----29.97+0.03 83.8- 75.9---
2024-06-18 10:50 pm E 23.3 29.1 7.9 65.5ESE29.97- 83.8- 75.7---
2024-06-18 10:40 pm E 23.3 29.1----29.97- 83.8- 75.9---
2024-06-18 10:30 pm E 23.3 29.1----29.96- 83.8- 76.1---
2024-06-18 10:20 pm E 23.3 29.1 7.9 65.2 E29.97- 84.0- 76.1---
2024-06-18 10:10 pm E 23.3 29.1 7.9-5.2 E29.97- 84.0- 76.3---
2024-06-18 10:00 pm E 23.3 29.1----29.97+0.04 84.2- 75.7---
2024-06-18 09:50 pm E 25.3 31.1 7.2 65.2 E29.96- 84.4- 75.6---
2024-06-18 09:40 pm E 23.3 31.1 7.2-5.2 E29.96- 84.4- 76.3---
2024-06-18 09:30 pm E 23.3 29.1----29.96- 84.4- 76.3---
2024-06-18 09:20 pm E 21.4 27.2 6.9 65.1 E29.97- 84.4- 76.5---
2024-06-18 09:10 pm E 21.4 29.1 6.9-5.1 E29.96- 84.4- 76.6---
2024-06-18 09:00 pm E 23.3 27.2----29.96+0.04 84.4- 76.3---
2024-06-18 08:50 pm E 23.3 29.1 6.9 75.1SSE29.96- 84.6- 76.5---
2024-06-18 08:40 pm E 23.3 29.1----29.95- 84.4- 76.8---
2024-06-18 08:30 pm E 23.3 31.1----29.94- 84.6- 77.0---
2024-06-18 08:20 pm E 21.4 29.1 6.9 75.1SSE29.94- 84.7- 77.0---
2024-06-18 08:10 pm E 23.3 29.1 6.9-5.1SSE29.94- 84.9- 77.2---
2024-06-18 08:00 pm E 23.3 29.1----29.93+0.01 85.3- 76.5---
2024-06-18 07:50 pm E 21.4 27.2 5.9 84.9SSE29.93- 85.5- 76.6---
2024-06-18 07:40 pm E 21.4 25.3----29.93- 85.5- 76.8---
2024-06-18 07:30 pm E 21.4 27.2----29.93- 85.6- 76.5---
2024-06-18 07:20 pm E 21.4 27.2 6.2 75.2SSE29.93- 85.8- 76.6---
2024-06-18 07:10 pm E 21.4 27.2 6.2-5.2SSE29.93- 85.8- 77.7---
2024-06-18 07:00 pm E 15.5 19.4----29.93-0.01 85.6- 78.3---
2024-06-18 06:50 pm E 13.6 19.4 6.6 75.4SSE29.92- 85.5- 77.9---
2024-06-18 06:40 pm E 13.6 17.5----29.93- 85.6- 77.5---
2024-06-18 06:20 pm E 13.6 17.5 6.2 75.3SSE29.92- 85.5- 77.5---
2024-06-18 06:10 pm E 13.6 17.5 6.2-5.3SSE29.92- 85.5- 77.4---
2024-06-18 06:00 pm E 13.6 17.5----29.92-0.03 85.5- 77.2---
2024-06-18 05:50 pm E 15.5 19.4 6.6 75.5SSE29.91- 85.5- 77.0---
2024-06-18 05:40 pm E 15.5 19.4 6.6-5.5SSE29.91- 85.5- 77.0---
2024-06-18 05:30 pm E 15.5 19.4----29.91- 85.5- 76.6---
2024-06-18 05:20 pm E 13.6 17.5 6.6 75.4SSE29.92- 85.5- 76.6---
2024-06-18 05:10 pm E 13.6 17.5 6.6-5.4SSE29.92- 85.3- 77.0---
2024-06-18 05:00 pm E 13.6 15.5----29.92-0.03 85.3- 76.6---
2024-06-18 04:50 pm E 13.6 15.5 6.9 75.5SSE29.92- 85.1- 76.5---
2024-06-18 04:40 pm E 13.6 17.5 6.9-5.5SSE29.93- 85.1- 76.1---
2024-06-18 04:30 pm E 13.6 17.5----29.93- 85.1- 76.1---
2024-06-18 04:20 pm E 15.5 19.4 6.9 75.4SSE29.93- 84.9- 75.7---
2024-06-18 04:10 pm E 13.6 17.5 6.9-5.4SSE29.93- 84.9- 76.1---
2024-06-18 04:00 pm E 13.6 17.5----29.93-0.02 84.7- 76.5---
2024-06-18 03:50 pm E 13.6 17.5 7.5 75.5SSE29.94- 84.4- 76.8---

Detailed Wave Summary
for 42036 as of (3:40 pm CDT)
2040 GMT on 06/19/2024:

These wave data are displayed in rounded times.

     

Click on the graph icon in the table below to see a time series plot of the last five days of that observation.

5-day plot - Significant Wave Height Significant Wave Height (WVHT): 8.5 ft
5-day plot - Swell Height Swell Height (SwH): 0.0 ft
5-day plot - Wind Wave Height Wind Wave Height (WWH): 8.5 ft
5-day plot - Wind Wave Period Wind Wave Period (WWP): 6.2 sec
5-day plot - Wind Wave Direction Wind Wave Direction (WWD):ESE
5-day plot - Wave Steepness Wave Steepness (STEEPNESS):VERY_STEEP
5-day plot - Average Wave Period Average Wave Period (APD): 5.4 sec
Previous observations
TIME
(CDT)
5-day plot - Wave Height
WVHT
ft
5-day plot - Swell Height
SwH
ft
5-day plot - Swell Period
SwP
sec
5-day plot - Swell Direction
SwD
 
5-day plot - Wind Wave Height
WWH
ft
5-day plot - Wind Wave Period
WWP
sec
5-day plot - Wind Wave Direction
WWD
 
5-day plot - Wave Steepness
STEEPNESS
 
5-day plot - Average Wave Period
APD
sec
2024-06-19 03:10 pm 7.5 1.0 14.8 SW 7.5 6.2 EVERY_STEEP 5.3
2024-06-19 02:40 pm 7.2 0.0-- 7.2 6.2 EVERY_STEEP 5.2
2024-06-19 02:10 pm 7.5 1.0 16.0ESE 7.2 6.2 EVERY_STEEP 5.2
2024-06-19 01:40 pm 7.2 0.0-- 7.2 6.2 ESEVERY_STEEP 5.2
2024-06-19 01:10 pm 7.2 1.3 10.0 S 7.2 5.9 ESEVERY_STEEP 5.2
2024-06-19 12:40 pm 6.9 1.6 10.0SSW 6.6 6.2 ESEVERY_STEEP 5.1
2024-06-19 12:10 pm 6.9 1.3 13.8 E 6.9 6.2 EVERY_STEEP 5.1
2024-06-19 11:40 am 6.9 0.0-- 6.9 6.7 ESEVERY_STEEP 5.2
2024-06-19 11:10 am 7.5 0.0-- 7.5 6.2 EVERY_STEEP 5.4
2024-06-19 10:40 am 6.6 1.6 9.1SSW 6.6 6.2 ESEVERY_STEEP 5.1
2024-06-19 10:10 am 7.5 1.0 10.0SSW 7.5 6.7 EVERY_STEEP 5.4
2024-06-19 09:40 am 7.2 0.0-- 7.2 6.2 EVERY_STEEP 5.3
2024-06-19 09:10 am 7.2 0.0-- 7.2 6.2 ESEVERY_STEEP 5.3
2024-06-19 08:40 am 6.9 0.0-- 6.9 5.9 ESEVERY_STEEP 5.2
2024-06-19 08:10 am 6.2 1.6 9.1SSW 6.2 6.2 EVERY_STEEP 5.1
2024-06-19 07:40 am 6.6 1.6 9.1SSW 6.2 6.2 EVERY_STEEP 5.1
2024-06-19 07:10 am 6.9 1.6 9.1SSW 6.6 6.2 ESEVERY_STEEP 5.2
2024-06-19 06:40 am 6.6 1.6 9.1SSW 6.2 6.2 ESEVERY_STEEP 5.2
2024-06-19 06:10 am 6.9 1.3 10.0SSW 6.6 6.7 E STEEP 5.3
2024-06-19 05:40 am 6.6 1.6 9.1 S 6.6 6.7 E STEEP 5.2
2024-06-19 05:10 am 7.2 0.0-- 7.2 7.1 E STEEP 5.4
2024-06-19 04:40 am 7.2 0.0-- 7.2 6.7 ESEVERY_STEEP 5.5
2024-06-19 04:10 am 6.9 0.0-- 6.9 7.1 E STEEP 5.3
2024-06-19 03:40 am 7.2 0.0-- 7.2 6.7 ESEVERY_STEEP 5.3
2024-06-19 03:10 am 8.2 0.0-- 8.2 6.7 ESEVERY_STEEP 5.5
2024-06-19 02:40 am 8.2 0.0-- 8.2 7.1 E STEEP 5.6
2024-06-19 02:10 am 8.5 0.7 13.8 NE 8.5 7.1 ESEVERY_STEEP 5.6
2024-06-19 01:40 am 8.9 0.7 12.9ENE 8.9 7.1 ESEVERY_STEEP 5.6
2024-06-19 01:10 am 8.9 0.0-- 8.9 7.1 EVERY_STEEP 5.6
2024-06-19 12:40 am 9.2 0.0-- 9.2 7.1 ESEVERY_STEEP 5.6
2024-06-19 12:10 am 8.2 0.0-- 8.2 6.7 ESEVERY_STEEP 5.5
2024-06-18 11:40 pm 9.2 0.0-- 9.2 7.1 ESEVERY_STEEP 5.6
2024-06-18 11:10 pm 7.9 1.3 10.0SSW 7.9 6.7 ESEVERY_STEEP 5.4
2024-06-18 10:40 pm 7.9 0.0-- 7.9 6.2 ESEVERY_STEEP 5.5
2024-06-18 10:10 pm 7.9 1.6 9.1SSW 7.5 5.9 EVERY_STEEP 5.2
2024-06-18 09:40 pm 7.2 0.0-- 7.2 5.6 EVERY_STEEP 5.2
2024-06-18 09:10 pm 6.9 0.0-- 6.9 5.6 EVERY_STEEP 5.1
2024-06-18 08:40 pm 6.9 1.6 9.1 S 6.9 7.1 SSE STEEP 5.1
2024-06-18 08:10 pm 6.9 1.6 9.1SSW 6.6 7.1 SSE STEEP 5.1
2024-06-18 07:40 pm 5.9 2.6 7.7SSE 5.2 5.9 SSE STEEP 4.9
2024-06-18 07:10 pm 6.2 0.0-- 6.2 6.7 SSE STEEP 5.2
2024-06-18 06:40 pm 6.6 3.9 7.7SSE 5.2 6.7 SSE STEEP 5.4
2024-06-18 06:10 pm 6.2 0.0-- 6.2 7.1 SSE STEEP 5.3
2024-06-18 05:40 pm 6.6 0.0-- 6.6 7.1 SSE STEEP 5.5
2024-06-18 05:10 pm 6.6 4.6 7.1SSE 4.6 4.8 ESE STEEP 5.4
2024-06-18 04:40 pm 6.9 4.6 7.1SSE 5.2 5.9 SE STEEP 5.5
2024-06-18 04:10 pm 6.9 4.3 7.1SSE 5.2 5.6 ESE STEEP 5.4

Plot of wave energy versus frequency (and period)